User: anonymous   Login
Location: George Washington National Forest Helicopter Landing Site
(38.6463°N, 79.0851°W)
Time: 09:29:08
(UTC-04:00)
Language:

Altair - Orbit

View from above orbital plane
View from above orbital plane
View from above satellite
View from above satellite

Ground track
Ground track

The orbit data is extracted from the following two-line orbital elements,

1    50U 60009B   19234.70123877 -.00000118 +00000-0 -30097-3 0  9998
2    50 047.2332 331.5988 0113962 152.6130 208.0726 12.20109624633627
Epoch (UTC): 22 August 2019 16:49:47
Eccentricity: 0.0113962
inclination: 47.2332°
perigee height: 1501 km
apogee height: 1683 km
right ascension of ascending node: 331.5988°
argument of perigee: 152.6130°
revolutions per day: 12.20109624
mean anomaly at epoch: 208.0726°
orbit number at epoch: 63362

The dashed part of the orbit path shows where the satellite is in the earth's shadow,  

DLR